Location: Unspecified
(52.0178°N, 0.0000°E)
Time: 01:04:49
(UTC+00:00)

O/OREOS (USA 219) - Pass Details

Date: 30 July 2019
Orbit: 621 x 646 km, 72.0° (Epoch: 22 May)

Event Time Altitude Azimuth Distance (km) Brightness Sun altitude
Exits shadow 03:26:29 - 232° (SW) 2,123 ? -7.1°
Reaches altitude 10° 03:26:45 10° 233° (SW) 2,027 ? -7.1°
Maximum altitude 03:31:06 44° 306° (NW) 886 ? -6.6°
Drops below altitude 10° 03:35:27 10° 19° (NNE) 2,024 ? -6.1°
Sets 03:37:49 0° 26° (NNE) 2,932 ? -5.8°
